Location: Asheville, NC
(35.6000°N, 82.5500°W)
Time: 04:30:25
(UTC-05:00)

Vanguard 1 - Pass Details

Date: 13 December 2017
Orbit: 649 x 3834 km, 34.3° (Epoch: 18 January)

Event Time Altitude Azimuth Distance (km) Brightness Sun altitude
Rises 07:48:46 0° 219° (SW) 7,808 14.6 2.3°
Reaches altitude 10° 07:54:20 10° 214° (SW) 6,902 14.4 3.2°
Maximum altitude 08:16:01 48° 149° (SSE) 4,102 14.0 6.9°
Drops below altitude 10° 08:31:46 10° 81° (E) 5,208 14.5 9.5°
Sets 08:35:12 0° 76° (ENE) 5,856 14.6 10.0°
